Back to catalog

ONEWEB-0113

AliveCommunicationsPO
NORAD 48050·PAYLOAD·🇬🇧 United Kingdom

Launched Mar 25, 2021 from Vostochny Cosmodrome

Loading…

Next Passes (next 24 hours)

TLE

FreshSource: CelesTrak SupGP

Epoch: Sep 14, 2026, 10:26 UTC

1 48050C 21025J   26257.43489995  .00002132  00000+0  58102-2 0  2572
2 48050  87.8921 302.3686 0001953 101.2409 331.9353 13.13890835    16

Track ONEWEB-0113 in real time with AllMySat

Download on the App Store